Terug naar catalogus

STARLINK-2354

ActiefCommunicatieVLEO
NORAD 47894·PAYLOAD·🇺🇸 United States

Gelanceerd Mar 14, 2021 vanaf Cape Canaveral Space Force Station

Loading…

Volgende Passages (komende 24 uur)

TLE

VersSource: CelesTrak SupGP

Epoch: Sep 14, 2026, 21:24 UTC

1 47894C 21021AL  26257.89215278  .00020818  00000+0  49477-3 0  2571
2 47894  53.1473 103.4349 0004590 117.1573 249.5730 15.41067856    18

Volg STARLINK-2354 in realtime met AllMySat

Download on the App Store